When you browse on this site, cookies collect data to enhance your experience and personalize the content and advertising you see.
Visit our Privacy Policy to learn more. By continuing to use the site, you agree to this use of cookies and data.
  • In France
  • List of Countries
  • For 7 days
  • Water Temperature
  • Weather Map
  • Weather Widgets
  • user-avatar
    Login

    Hourly Weather Rio de Janeiro

    Today, 21 August, Wednesday

    Time Temperature Precipitation Wind Pressure Humidity
    00:00 +21°C° 0.4 mm 4 mps 764 mmHg 91%
    01:00 +20°C° 0.4 mm 4 mps 764 mmHg 91%
    02:00 +20°C° 0.4 mm 4 mps 764 mmHg 91%
    03:00 +20°C° 0.4 mm 4 mps 764 mmHg 90%
    04:00 +20°C° 0.8 mm 4 mps 764 mmHg 90%
    05:00 +20°C° 0.8 mm 4 mps 764 mmHg 91%
    06:00 +20°C° 0.8 mm 4 mps 764 mmHg 91%
    07:00 +20°C° 0.4 mm 4 mps 764 mmHg 89%
    08:00 +20°C° 0.4 mm 3 mps 765 mmHg 87%
    09:00 +20°C° 0.4 mm 3 mps 765 mmHg 85%
    10:00 +21°C° 0.1 mm 3 mps 765 mmHg 84%
    11:00 +21°C° 0.1 mm 3 mps 764 mmHg 82%
    12:00 +21°C° 0.1 mm 3 mps 764 mmHg 81%
    13:00 +21°C° 0 mm 3 mps 764 mmHg 79%
    14:00 +22°C° 0 mm 3 mps 763 mmHg 77%
    15:00 +22°C° 0 mm 3 mps 763 mmHg 75%
    16:00 +21°C° 0 mm 3 mps 763 mmHg 76%
    17:00 +21°C° 0 mm 3 mps 763 mmHg 78%
    18:00 +21°C° 0 mm 2 mps 763 mmHg 79%
    19:00 +20°C° 0 mm 2 mps 764 mmHg 79%
    20:00 +20°C° 0 mm 2 mps 764 mmHg 79%
    21:00 +20°C° 0 mm 2 mps 765 mmHg 80%
    22:00 +21°C° 0 mm 1 mps 764 mmHg 80%
    23:00 +21°C° 0 mm 1 mps 764 mmHg 81%

    Tomorrow, 22 August, Thursday

    Time Temperature Precipitation Wind Pressure Humidity
    00:00 +21°C° 0 mm 1 mps 764 mmHg 82%
    01:00 +21°C° 0 mm 1 mps 764 mmHg 82%
    02:00 +21°C° 0 mm 1 mps 764 mmHg 83%
    03:00 +20°C° 0 mm 1 mps 764 mmHg 83%
    04:00 +18°C° 0.1 mm 0 mps 764 mmHg 83%
    05:00 +18°C° 0.1 mm 0 mps 764 mmHg 83%
    06:00 +18°C° 0.1 mm 0 mps 765 mmHg 84%
    07:00 +19°C° 0.1 mm 0 mps 765 mmHg 79%
    08:00 +21°C° 0.1 mm 0 mps 765 mmHg 74%
    09:00 +22°C° 0.1 mm 0 mps 766 mmHg 69%
    10:00 +24°C° 0.1 mm 1 mps 766 mmHg 65%
    11:00 +25°C° 0.1 mm 2 mps 765 mmHg 61%
    12:00 +25°C° 0.1 mm 3 mps 765 mmHg 58%
    13:00 +25°C° 0 mm 3 mps 765 mmHg 58%
    14:00 +25°C° 0 mm 3 mps 765 mmHg 58%
    15:00 +25°C° 0 mm 3 mps 764 mmHg 59%
    16:00 +24°C° 0 mm 3 mps 765 mmHg 64%
    17:00 +23°C° 0 mm 2 mps 765 mmHg 69%
    18:00 +20°C° 0 mm 2 mps 765 mmHg 74%
    19:00 +20°C° 0.1 mm 2 mps 765 mmHg 75%
    20:00 +20°C° 0.1 mm 2 mps 766 mmHg 76%
    21:00 +21°C° 0.1 mm 1 mps 766 mmHg 77%
    22:00 +21°C° 0.1 mm 1 mps 766 mmHg 78%
    23:00 +20°C° 0.1 mm 1 mps 766 mmHg 78%

    Day after tomorrow, 23 August, Friday

    Time Temperature Precipitation Wind Pressure Humidity
    00:00 +20°C° 0.1 mm 1 mps 766 mmHg 78%
    01:00 +20°C° 0.1 mm 1 mps 765 mmHg 80%
    02:00 +19°C° 0.1 mm 2 mps 765 mmHg 81%
    03:00 +18°C° 0.1 mm 2 mps 764 mmHg 83%
    04:00 +18°C° 0.1 mm 2 mps 764 mmHg 83%
    05:00 +19°C° 0.1 mm 1 mps 764 mmHg 83%
    06:00 +19°C° 0.1 mm 1 mps 764 mmHg 83%
    07:00 +20°C° 0 mm 1 mps 764 mmHg 81%
    08:00 +20°C° 0 mm 1 mps 764 mmHg 79%
    09:00 +20°C° 0 mm 2 mps 765 mmHg 76%
    10:00 +20°C° 0.1 mm 2 mps 764 mmHg 75%
    11:00 +20°C° 0.1 mm 3 mps 764 mmHg 74%
    12:00 +20°C° 0.1 mm 3 mps 763 mmHg 73%
    13:00 +20°C° 2.9 mm 5 mps 763 mmHg 78%
    14:00 +20°C° 2.9 mm 6 mps 762 mmHg 82%
    15:00 +18°C° 2.9 mm 7 mps 762 mmHg 87%
    16:00 +19°C° 2.9 mm 6 mps 763 mmHg 87%
    17:00 +19°C° 2.9 mm 5 mps 763 mmHg 86%
    18:00 +18°C° 2.9 mm 3 mps 764 mmHg 86%
    19:00 +18°C° 0.1 mm 3 mps 764 mmHg 86%
    20:00 +18°C° 0.1 mm 2 mps 765 mmHg 86%
    21:00 +18°C° 0.1 mm 2 mps 765 mmHg 86%
    22:00 +18°C° 0 mm 2 mps 765 mmHg 85%
    23:00 +18°C° 0 mm 2 mps 765 mmHg 84%

    24 August, Saturday

    Time Temperature Precipitation Wind Pressure Humidity
    00:00 +19°C° 0 mm 1 mps 765 mmHg 83%
    01:00 +19°C° 0.1 mm 1 mps 765 mmHg 83%
    02:00 +19°C° 0.1 mm 1 mps 765 mmHg 83%
    03:00 +19°C° 0.1 mm 1 mps 765 mmHg 83%
    04:00 +19°C° 0.2 mm 1 mps 765 mmHg 83%
    05:00 +18°C° 0.2 mm 1 mps 765 mmHg 83%
    06:00 +18°C° 0.2 mm 1 mps 765 mmHg 84%
    07:00 +18°C° 0.2 mm 2 mps 766 mmHg 80%
    08:00 +19°C° 0.2 mm 2 mps 766 mmHg 77%
    09:00 +20°C° 0.2 mm 2 mps 766 mmHg 74%
    10:00 +21°C° 0.1 mm 2 mps 766 mmHg 70%
    11:00 +22°C° 0.1 mm 3 mps 766 mmHg 66%
    12:00 +24°C° 0.1 mm 3 mps 766 mmHg 62%
    13:00 +22°C° 0.1 mm 4 mps 766 mmHg 64%
    14:00 +22°C° 0.1 mm 4 mps 765 mmHg 66%
    15:00 +22°C° 0.1 mm 5 mps 765 mmHg 68%
    16:00 +21°C° 0.1 mm 5 mps 765 mmHg 71%
    17:00 +20°C° 0.1 mm 5 mps 766 mmHg 73%
    18:00 +20°C° 0.1 mm 5 mps 766 mmHg 76%
    19:00 +20°C° 0 mm 5 mps 767 mmHg 76%
    20:00 +19°C° 0 mm 5 mps 767 mmHg 75%
    21:00 +19°C° 0 mm 4 mps 768 mmHg 75%
    22:00 +19°C° 0 mm 4 mps 768 mmHg 76%
    23:00 +19°C° 0 mm 4 mps 768 mmHg 77%

    25 August, Sunday

    Time Temperature Precipitation Wind Pressure Humidity
    00:00 +19°C° 0 mm 4 mps 768 mmHg 78%
    01:00 +19°C° 0 mm 4 mps 767 mmHg 78%
    02:00 +19°C° 0 mm 4 mps 767 mmHg 77%
    03:00 +19°C° 0 mm 4 mps 767 mmHg 77%
    04:00 +18°C° 0 mm 4 mps 767 mmHg 78%
    05:00 +18°C° 0 mm 4 mps 767 mmHg 78%
    06:00 +18°C° 0 mm 4 mps 768 mmHg 78%
    07:00 +19°C° 0 mm 4 mps 768 mmHg 75%
    08:00 +20°C° 0 mm 4 mps 768 mmHg 72%
    09:00 +21°C° 0 mm 4 mps 769 mmHg 69%
    10:00 +22°C° 0 mm 4 mps 768 mmHg 64%
    11:00 +23°C° 0 mm 4 mps 768 mmHg 60%
    12:00 +25°C° 0 mm 4 mps 768 mmHg 56%
    13:00 +25°C° 0.1 mm 4 mps 768 mmHg 57%
    14:00 +25°C° 0.1 mm 5 mps 767 mmHg 59%
    15:00 +24°C° 0.1 mm 6 mps 767 mmHg 60%
    16:00 +23°C° 0 mm 6 mps 767 mmHg 64%
    17:00 +22°C° 0 mm 6 mps 767 mmHg 67%
    18:00 +21°C° 0 mm 5 mps 768 mmHg 70%
    19:00 +20°C° 0 mm 5 mps 768 mmHg 72%
    20:00 +20°C° 0 mm 5 mps 768 mmHg 74%
    21:00 +19°C° 0 mm 5 mps 768 mmHg 75%
    22:00 +19°C° 0 mm 5 mps 768 mmHg 76%
    23:00 +19°C° 0 mm 5 mps 768 mmHg 76%

    26 August, Monday

    Time Temperature Precipitation Wind Pressure Humidity
    00:00 +19°C° 0 mm 4 mps 768 mmHg 77%
    01:00 +19°C° 0 mm 4 mps 768 mmHg 77%
    02:00 +18°C° 0 mm 4 mps 768 mmHg 78%
    03:00 +18°C° 0 mm 4 mps 767 mmHg 79%
    04:00 +18°C° 0 mm 3 mps 767 mmHg 79%
    05:00 +17°C° 0 mm 3 mps 767 mmHg 80%
    06:00 +17°C° 0 mm 3 mps 767 mmHg 81%
    07:00 +18°C° 0 mm 3 mps 768 mmHg 75%
    08:00 +20°C° 0 mm 2 mps 768 mmHg 68%
    09:00 +21°C° 0 mm 2 mps 768 mmHg 62%
    10:00 +23°C° 0 mm 2 mps 768 mmHg 57%
    11:00 +25°C° 0 mm 3 mps 767 mmHg 51%
    12:00 +26°C° 0 mm 3 mps 767 mmHg 46%
    13:00 +26°C° 0 mm 3 mps 766 mmHg 47%
    14:00 +26°C° 0 mm 4 mps 766 mmHg 48%
    15:00 +26°C° 0 mm 5 mps 765 mmHg 49%
    16:00 +25°C° 0 mm 5 mps 765 mmHg 54%
    17:00 +23°C° 0 mm 5 mps 766 mmHg 60%
    18:00 +21°C° 0 mm 5 mps 766 mmHg 65%
    19:00 +21°C° 0 mm 4 mps 766 mmHg 67%
    20:00 +20°C° 0 mm 4 mps 766 mmHg 69%
    21:00 +19°C° 0 mm 3 mps 767 mmHg 71%
    22:00 +18°C° 0 mm 3 mps 767 mmHg 72%
    23:00 +18°C° 0 mm 3 mps 767 mmHg 73%
    Show more